Weather History for LIRN - July, 2012

Change the Weather History Date:

Thursday, July 19, 2012

  Actual Average Record
Temperature  
Mean Temperature 81 °F -  
Max Temperature 89 °F 85 °F 93 °F (2003)
Min Temperature 73 °F 64 °F 64 °F (2001)
Cooling Degree Days 16    
Growing Degree Days 31 (Base 50)    
Moisture  
Dew Point 58 °F    
Average Humidity 44    
Maximum Humidity 65    
Minimum Humidity 29    
Precipitation  
Precipitation 0.00 in 0.05 in - ()
Sea Level Pressure  
Sea Level Pressure 29.98 in    
Wind  
Wind Speed 4 mph ()    
Max Wind Speed 13 mph    
Max Gust Speed -    
Averages and records for this station are not official NWS values.
T = Trace of Precipitation, MM = Missing Value Source: Averaged Metar Reports

Daily Weather History Graph

Daily Weather History Graph

Search for Another Location

Airport or City:

Trip Planner

Search our weather history database for the weather conditions in past years. The results will help you decide how hot, cold, wet, or windy it might be!

Date:

Astronomy

Jul. 19, 2012 Rise Set
Actual Time 5:47 AM CEST 8:30 PM CEST
Civil Twilight 5:15 AM CEST 9:02 PM CEST
Nautical Twilight 4:35 AM CEST 9:42 PM CEST
Astronomical Twilight 3:49 AM CEST 10:28 PM CEST
Moon 6:04 AM CEST (7/19) 8:25 PM CEST (7/19)
Length of Visible Light 15h 47m
Length of Day
14h 43m
New Moon, 0% of the Moon is Illuminated
Jul 19
New Moon
Jul 26
First Quarter
Aug 2
Full
Aug 9
Last Quarter
Aug 17
New

Hourly Weather History & Observations

Time (CEST) Temp. Heat Index Dew Point Humidity Pressure Visibility Wind Dir Wind Speed Gust Speed Precip Events Conditions
12:20 AM 75.2 °F - 55.4 °F 50% 30.04 in - Variable 1.2 mph - N/A   Clear
12:50 AM 77.0 °F - 55.4 °F 47% 30.04 in - Variable 1.2 mph - N/A   Clear
1:20 AM 77.0 °F - 59.0 °F 54% 30.04 in - NNW 3.5 mph - N/A   Clear
1:50 AM 77.0 °F - 60.8 °F 57% 30.04 in - North 3.5 mph - N/A   Clear
2:20 AM 77.0 °F - 55.4 °F 47% 30.01 in - NNE 4.6 mph - N/A   Clear
2:50 AM 75.2 °F - 53.6 °F 47% 30.01 in - NNE 4.6 mph - N/A   Clear
3:20 AM 75.2 °F - 53.6 °F 47% 29.98 in - NNE 4.6 mph - N/A   Clear
3:50 AM 75.2 °F - 51.8 °F 44% 29.98 in - North 3.5 mph - N/A   Clear
4:20 AM 73.4 °F - 51.8 °F 47% 29.98 in - North 2.3 mph - N/A   Clear
4:50 AM 73.4 °F - 51.8 °F 47% 29.98 in - North 2.3 mph - N/A   Clear
5:50 AM 73.4 °F - 50.0 °F 44% 29.98 in - NE 4.6 mph - N/A   Clear
6:20 AM 73.4 °F - 50.0 °F 44% 29.98 in - North 3.5 mph - N/A   Clear
6:50 AM 75.2 °F - 50.0 °F 41% 29.98 in - North 3.5 mph - N/A   Clear
7:20 AM 77.0 °F - 50.0 °F 39% 30.01 in - NNE 4.6 mph - N/A   Clear
7:50 AM 78.8 °F - 50.0 °F 36% 30.01 in - NNW 3.5 mph - N/A   Clear
8:20 AM 82.4 °F - 50.0 °F 32% 30.01 in - Variable 2.3 mph - N/A   Clear
8:50 AM 84.2 °F - 51.8 °F 33% 30.01 in - Variable 1.2 mph - N/A   Clear
9:20 AM - - - N/A% - - Variable 2.3 mph - N/A   Unknown
9:50 AM 87.8 °F - 51.8 °F 29% 30.01 in - South 4.6 mph - N/A   Clear
10:20 AM 86.0 °F 84.9 °F 57.2 °F 37% 30.01 in - South 5.8 mph - N/A   Clear
10:50 AM 86.0 °F 84.5 °F 55.4 °F 35% 30.01 in - South 8.1 mph - N/A   Clear
11:20 AM 87.8 °F 86.1 °F 55.4 °F 33% 30.01 in - South 8.1 mph - N/A   Clear
11:50 AM 87.8 °F 86.1 °F 55.4 °F 33% 30.01 in - South 8.1 mph - N/A   Clear
12:20 PM 87.8 °F 86.5 °F 57.2 °F 35% 30.01 in - South 10.4 mph - N/A   Clear
12:50 PM 87.8 °F 87.6 °F 60.8 °F 40% 30.01 in - South 10.4 mph - N/A   Clear
1:20 PM 87.8 °F 87.1 °F 59.0 °F 38% 30.01 in - South 11.5 mph - N/A   Clear
1:50 PM 87.8 °F 87.6 °F 60.8 °F 40% 29.98 in - South 10.4 mph - N/A   Clear
2:20 PM 89.6 °F 88.9 °F 59.0 °F 36% 29.98 in - South 10.4 mph - N/A   Clear
2:50 PM 87.8 °F 87.6 °F 60.8 °F 40% 29.98 in - South 11.5 mph - N/A   Clear
3:20 PM 87.8 °F 87.1 °F 59.0 °F 38% 29.98 in - South 12.7 mph - N/A   Clear
3:50 PM 87.8 °F 86.5 °F 57.2 °F 35% 29.98 in - South 11.5 mph - N/A   Clear
4:20 PM 87.8 °F 87.1 °F 59.0 °F 38% 29.95 in - South 10.4 mph - N/A   Clear
4:50 PM 87.8 °F 87.1 °F 59.0 °F 38% 29.95 in - South 10.4 mph - N/A   Clear
5:20 PM 87.8 °F 87.6 °F 60.8 °F 40% 29.95 in - South 10.4 mph - N/A   Clear
5:50 PM 87.8 °F 89.4 °F 64.4 °F 46% 29.95 in - South 8.1 mph - N/A   Clear
6:20 PM 86.0 °F 86.6 °F 62.6 °F 45% 29.95 in - South 8.1 mph - N/A   Clear
6:50 PM 84.2 °F 85.6 °F 64.4 °F 51% 29.95 in - South 6.9 mph - N/A   Clear
7:20 PM 84.2 °F 85.6 °F 64.4 °F 51% 29.95 in - South 4.6 mph - N/A   Clear
7:50 PM 84.2 °F 85.6 °F 64.4 °F 51% 29.95 in - Variable 2.3 mph - N/A   Clear
8:20 PM 82.4 °F 83.9 °F 64.4 °F 54% 29.95 in - Variable 2.3 mph - N/A   Clear
8:50 PM 82.4 °F 83.9 °F 64.4 °F 54% 29.95 in - Variable 2.3 mph - N/A   Clear
9:20 PM 80.6 °F 82.7 °F 66.2 °F 61% 29.95 in - SSW 2.3 mph - N/A   Clear
9:50 PM 78.8 °F - 62.6 °F 57% 29.95 in - Variable 2.3 mph - N/A   Clear
10:20 PM 78.8 °F - 60.8 °F 54% 29.95 in - WSW 3.5 mph - N/A   Clear
10:50 PM 78.8 °F - 62.6 °F 57% 29.95 in - Variable 2.3 mph - N/A   Clear
11:20 PM 77.0 °F - 60.8 °F 57% 29.95 in - SW 3.5 mph - N/A   Clear
11:50 PM 77.0 °F - 64.4 °F 65% 29.95 in - Variable 2.3 mph - N/A   Clear